CAL80 PGUM-RCTP

Flight info

Callsign CAL80
Flight time 3h 56m
Altitude 37000
Route UNZ R584 SALVA R595 GRACE
Aircraft A306/H-SDE1E2E3FGHIJ2J3J4J5M1RWXYZ/LB1D1

Departure

Time 2026-05-06 07:59
Airport Antonio B. Won Pat International Airport (PGUM)

Arrival

Time 2026-05-06 11:55
Airport Taiwan Taoyuan International Airport (RCTP)
Time Latitude Longitude Altitude Speed Heading
2026-05-06 07:38 13.49156 144.80539 279 ft 0 kts 332°
2026-05-06 07:45 13.49157 144.80539 279 ft 0 kts 332°
2026-05-06 07:50 13.49156 144.80539 279 ft 1 kts 332°
2026-05-06 07:50 13.49147 144.80543 280 ft 2 kts 332°
2026-05-06 07:50 13.49144 144.80545 280 ft 2 kts 332°
2026-05-06 07:51 13.49134 144.80551 281 ft 0 kts 332°
2026-05-06 07:51 13.49128 144.80554 282 ft 2 kts 324°
2026-05-06 07:51 13.49116 144.80565 283 ft 2 kts 309°
2026-05-06 07:51 13.49109 144.80577 284 ft 2 kts 294°
2026-05-06 07:52 13.49104 144.80592 286 ft 2 kts 278°
2026-05-06 07:52 13.49104 144.80608 287 ft 2 kts 263°
2026-05-06 07:52 13.49108 144.80621 288 ft 2 kts 247°
2026-05-06 07:52 13.49111 144.80629 288 ft 0 kts 241°
2026-05-06 07:54 13.49105 144.80618 288 ft 4 kts 240°
2026-05-06 07:54 13.49076 144.80563 285 ft 13 kts 240°
2026-05-06 07:55 13.49019 144.80460 281 ft 21 kts 240°
2026-05-06 07:55 13.48915 144.80342 281 ft 25 kts 234°
2026-05-06 07:55 13.48826 144.80165 276 ft 30 kts 245°
2026-05-06 07:55 13.48727 144.79961 272 ft 33 kts 248°
2026-05-06 07:56 13.48628 144.79739 273 ft 34 kts 243°
2026-05-06 07:56 13.48538 144.79550 270 ft 11 kts 226°
2026-05-06 07:56 13.48474 144.79562 272 ft 9 kts 137°
2026-05-06 07:56 13.48448 144.79614 273 ft 7 kts 111°
2026-05-06 07:57 13.48460 144.79654 275 ft 5 kts 56°
2026-05-06 07:57 13.48466 144.79663 275 ft 0 kts 60°
2026-05-06 07:58 13.48467 144.79665 275 ft 1 kts 62°
2026-05-06 07:58 13.48530 144.79803 277 ft 51 kts 66°
2026-05-06 07:58 13.48785 144.80364 288 ft 118 kts 66°
2026-05-06 07:58 13.49212 144.81284 460 ft 158 kts 66°
2026-05-06 07:59 13.49668 144.82248 989 ft 148 kts 68°
2026-05-06 07:59 13.50031 144.83272 1380 ft 151 kts 75°
2026-05-06 07:59 13.50302 144.84315 1916 ft 152 kts 75°
2026-05-06 07:59 13.50704 144.85324 2466 ft 156 kts 65°
2026-05-06 08:00 13.51122 144.86266 3170 ft 144 kts 71°
2026-05-06 08:00 13.51447 144.87291 3353 ft 165 kts 76°
2026-05-06 08:00 13.51524 144.88432 3624 ft 164 kts 105°
2026-05-06 08:00 13.50690 144.89282 4100 ft 165 kts 142°
2026-05-06 08:01 13.49667 144.89871 3898 ft 221 kts 141°
2026-05-06 08:01 13.48138 144.90901 3470 ft 279 kts 141°
2026-05-06 08:01 13.46599 144.91940 4838 ft 266 kts 141°
2026-05-06 08:01 13.44963 144.92827 5879 ft 274 kts 158°
2026-05-06 08:02 13.43071 144.93037 6906 ft 286 kts 179°
2026-05-06 08:02 13.41154 144.92415 7842 ft 303 kts 209°
2026-05-06 08:02 13.39714 144.90825 8826 ft 313 kts 242°
2026-05-06 08:02 13.39203 144.88667 9794 ft 318 kts 273°
2026-05-06 08:03 13.39759 144.86504 10790 ft 315 kts 298°
2026-05-06 08:03 13.40783 144.84495 11627 ft 324 kts 301°
2026-05-06 08:03 13.41788 144.82440 12737 ft 325 kts 298°
2026-05-06 08:03 13.42706 144.80345 13784 ft 328 kts 296°
2026-05-06 08:04 13.43582 144.78189 14775 ft 334 kts 295°
2026-05-06 08:04 13.44447 144.75983 15856 ft 336 kts 294°
2026-05-06 08:04 13.45369 144.73772 16917 ft 337 kts 300°
2026-05-06 08:04 13.46565 144.71719 17830 ft 342 kts 306°
2026-05-06 08:05 13.47922 144.69696 18810 ft 345 kts 307°
2026-05-06 08:05 13.49313 144.67679 19767 ft 349 kts 307°
2026-05-06 08:05 13.50710 144.65649 20685 ft 353 kts 307°
2026-05-06 08:05 13.52128 144.63576 21532 ft 359 kts 306°
2026-05-06 08:06 13.53561 144.61470 22396 ft 363 kts 306°
2026-05-06 08:06 13.54997 144.59354 23266 ft 366 kts 306°
2026-05-06 08:06 13.56462 144.57188 24174 ft 368 kts 305°
2026-05-06 08:06 13.57922 144.55040 25014 ft 368 kts 305°
2026-05-06 08:07 13.59378 144.52898 25677 ft 372 kts 305°
2026-05-06 08:07 13.60862 144.50713 26423 ft 372 kts 305°
2026-05-06 08:07 13.62328 144.48552 27218 ft 369 kts 304°
2026-05-06 08:07 13.63786 144.46400 27993 ft 366 kts 304°
2026-05-06 08:08 13.65233 144.44264 28745 ft 361 kts 304°
2026-05-06 08:08 13.66658 144.42163 29310 ft 361 kts 304°
2026-05-06 08:08 13.68104 144.40033 29814 ft 362 kts 304°
2026-05-06 08:08 13.69536 144.37921 30184 ft 367 kts 304°
2026-05-06 08:09 13.71022 144.35724 30309 ft 378 kts 304°
2026-05-06 08:09 13.72504 144.33527 31229 ft 354 kts 302°
2026-05-06 08:09 13.73640 144.31628 33235 ft 303 kts 299°
2026-05-06 08:09 13.74781 144.29704 32588 ft 330 kts 300°
2026-05-06 08:10 13.75971 144.27714 33070 ft 317 kts 300°
2026-05-06 08:10 13.77087 144.25819 33631 ft 309 kts 298°
2026-05-06 08:10 13.78209 144.23973 33931 ft 303 kts 304°
2026-05-06 08:10 13.79449 144.22160 33414 ft 324 kts 302°
2026-05-06 08:11 13.80651 144.20079 32653 ft 348 kts 295°
2026-05-06 08:11 13.81703 144.17902 33754 ft 319 kts 300°
2026-05-06 08:11 13.83014 144.16333 35333 ft 274 kts 317°
2026-05-06 08:11 13.84381 144.15108 35888 ft 255 kts 313°
2026-05-06 08:12 13.85664 144.13750 35257 ft 269 kts 303°
2026-05-06 08:12 13.86757 144.12178 34792 ft 279 kts 304°
2026-05-06 08:12 13.87964 144.10606 34681 ft 277 kts 307°
2026-05-06 08:12 13.89181 144.09134 35010 ft 265 kts 310°
2026-05-06 08:13 13.90300 144.07600 34629 ft 274 kts 306°
2026-05-06 08:13 13.91538 144.05986 33620 ft 309 kts 306°
2026-05-06 08:13 13.92874 144.04080 31900 ft 360 kts 303°
2026-05-06 08:13 13.94184 144.01916 32363 ft 350 kts 299°
2026-05-06 08:14 13.96819 143.97603 32609 ft 362 kts 302°
2026-05-06 08:14 13.98255 143.95436 32766 ft 366 kts 303°
2026-05-06 08:14 13.99725 143.93254 32395 ft 386 kts 303°
2026-05-06 08:15 14.01303 143.90910 31574 ft 412 kts 303°
2026-05-06 08:15 14.02966 143.88440 30978 ft 432 kts 303°
2026-05-06 08:15 14.04725 143.85825 30488 ft 458 kts 304°
2026-05-06 08:15 14.06594 143.83050 30065 ft 481 kts 304°
2026-05-06 08:16 14.08551 143.80145 29669 ft 496 kts 304°
2026-05-06 08:16 14.10527 143.77214 29282 ft 506 kts 304°
2026-05-06 08:16 14.12535 143.74234 29386 ft 500 kts 304°
2026-05-06 08:16 14.14474 143.71358 30266 ft 484 kts 304°
2026-05-06 08:17 14.16390 143.68514 30846 ft 480 kts 304°
2026-05-06 08:17 14.18282 143.65700 31350 ft 479 kts 303°
2026-05-06 08:17 14.20181 143.62872 31940 ft 478 kts 303°
2026-05-06 08:17 14.22046 143.60095 32568 ft 474 kts 303°
2026-05-06 08:18 14.23927 143.57295 33094 ft 473 kts 303°
2026-05-06 08:18 14.25810 143.54489 33507 ft 473 kts 303°
2026-05-06 08:18 14.27653 143.51741 33980 ft 471 kts 303°
2026-05-06 08:18 14.29520 143.48958 34447 ft 468 kts 303°
2026-05-06 08:19 14.31361 143.46216 34861 ft 466 kts 303°
2026-05-06 08:19 14.33193 143.43480 35211 ft 465 kts 303°
2026-05-06 08:19 14.35037 143.40729 35552 ft 464 kts 303°
2026-05-06 08:19 14.36871 143.37990 35878 ft 463 kts 303°
2026-05-06 08:20 14.38699 143.35261 36192 ft 462 kts 303°
2026-05-06 08:20 14.40541 143.32509 36473 ft 462 kts 303°
2026-05-06 08:20 14.42337 143.29819 36817 ft 460 kts 303°
2026-05-06 08:20 14.44158 143.27101 36978 ft 460 kts 303°
2026-05-06 08:21 14.47785 143.21730 36986 ft 453 kts 303°
2026-05-06 08:21 14.51344 143.16455 36989 ft 454 kts 303°
2026-05-06 08:22 14.54905 143.11169 36989 ft 454 kts 303°
2026-05-06 08:22 14.58506 143.05830 36988 ft 453 kts 303°
2026-05-06 08:23 14.62091 143.00503 36988 ft 453 kts 303°
2026-05-06 08:23 14.65712 142.95126 36987 ft 452 kts 303°
2026-05-06 08:24 14.69283 142.89816 36985 ft 451 kts 303°
2026-05-06 08:24 14.72871 142.84477 36984 ft 451 kts 303°
2026-05-06 08:25 14.76429 142.79179 36984 ft 450 kts 304°
2026-05-06 08:25 14.80003 142.73854 36985 ft 451 kts 303°
2026-05-06 08:26 14.83581 142.68518 36983 ft 449 kts 304°
2026-05-06 08:26 14.87145 142.63197 36982 ft 451 kts 304°
2026-05-06 08:27 14.90740 142.57832 36981 ft 454 kts 304°
2026-05-06 08:27 14.94337 142.52460 36979 ft 453 kts 304°
2026-05-06 08:28 14.97912 142.47116 36979 ft 453 kts 304°
2026-05-06 08:28 15.01519 142.41721 36979 ft 454 kts 304°
2026-05-06 08:29 15.05099 142.36360 36979 ft 453 kts 304°
2026-05-06 08:29 15.08683 142.30992 36994 ft 453 kts 304°
2026-05-06 08:30 15.12253 142.25635 37012 ft 453 kts 304°
2026-05-06 08:30 15.15837 142.20265 37011 ft 453 kts 304°
2026-05-06 08:31 15.19413 142.14899 37014 ft 452 kts 304°
2026-05-06 08:31 15.22994 142.09514 37015 ft 452 kts 304°
2026-05-06 08:32 15.26545 142.04173 37017 ft 453 kts 304°
2026-05-06 08:32 15.30143 141.98764 37013 ft 453 kts 304°
2026-05-06 08:33 15.33717 141.93384 37015 ft 454 kts 304°
2026-05-06 08:33 15.37272 141.88028 37017 ft 453 kts 304°
2026-05-06 08:34 15.42617 141.79970 37014 ft 452 kts 304°
2026-05-06 08:35 15.46181 141.74597 37014 ft 452 kts 304°
2026-05-06 08:35 15.49763 141.69183 37012 ft 452 kts 304°
2026-05-06 08:36 15.53299 141.63838 37013 ft 452 kts 304°
2026-05-06 08:36 15.56869 141.58437 37010 ft 453 kts 304°
2026-05-06 08:37 15.60429 141.53049 37009 ft 452 kts 304°
2026-05-06 08:37 15.63958 141.47704 37005 ft 451 kts 304°
2026-05-06 08:38 15.67512 141.42320 36999 ft 452 kts 304°
2026-05-06 08:38 15.71062 141.36938 36998 ft 450 kts 304°
2026-05-06 08:39 15.74604 141.31563 37002 ft 451 kts 304°
2026-05-06 08:39 15.78315 141.26358 37006 ft 449 kts 310°
2026-05-06 08:40 15.82528 141.21536 37005 ft 450 kts 313°
2026-05-06 08:40 15.86739 141.16733 37003 ft 449 kts 312°
2026-05-06 08:41 15.90904 141.11908 37005 ft 448 kts 312°
2026-05-06 08:41 15.95085 141.07068 37003 ft 449 kts 312°
2026-05-06 08:42 15.99232 141.02269 37004 ft 450 kts 312°
2026-05-06 08:42 16.03411 140.97427 37001 ft 449 kts 312°
2026-05-06 08:43 16.07586 140.92590 37001 ft 448 kts 312°
2026-05-06 08:43 16.11746 140.87762 37009 ft 446 kts 312°
2026-05-06 08:44 16.15883 140.82962 37012 ft 447 kts 312°
2026-05-06 08:44 16.20048 140.78125 37010 ft 448 kts 312°
2026-05-06 08:45 16.24184 140.73315 37012 ft 447 kts 312°
2026-05-06 08:45 16.28343 140.68478 37008 ft 448 kts 312°
2026-05-06 08:46 16.32497 140.63640 37012 ft 448 kts 312°
2026-05-06 08:46 16.36650 140.58804 37017 ft 449 kts 312°
2026-05-06 08:47 16.40822 140.53944 37019 ft 448 kts 312°
2026-05-06 08:47 16.44985 140.49089 37023 ft 447 kts 312°
2026-05-06 08:48 16.49122 140.44258 37022 ft 448 kts 312°
2026-05-06 08:48 16.53255 140.39432 37022 ft 447 kts 312°
2026-05-06 08:49 16.57405 140.34581 37019 ft 448 kts 312°
2026-05-06 08:49 16.61565 140.29715 37023 ft 449 kts 312°
2026-05-06 08:50 16.65693 140.24881 37025 ft 448 kts 312°
2026-05-06 08:50 16.69840 140.20023 37022 ft 447 kts 312°
2026-05-06 08:51 16.73990 140.15164 37024 ft 448 kts 312°
2026-05-06 08:51 16.78131 140.10304 37023 ft 447 kts 312°
2026-05-06 08:52 16.82259 140.05463 37021 ft 446 kts 312°
2026-05-06 08:52 16.86377 140.00623 37019 ft 447 kts 312°
2026-05-06 08:53 16.90521 139.95750 37022 ft 447 kts 312°
2026-05-06 08:53 16.94654 139.90889 37022 ft 447 kts 312°
2026-05-06 08:54 16.98784 139.86029 37021 ft 448 kts 312°
2026-05-06 08:54 17.02905 139.81174 37022 ft 446 kts 312°
2026-05-06 08:55 17.07032 139.76308 37021 ft 447 kts 312°
2026-05-06 08:55 17.11147 139.71457 37028 ft 447 kts 312°
2026-05-06 08:56 17.15281 139.66574 37031 ft 447 kts 311°
2026-05-06 08:56 17.19376 139.61737 37030 ft 446 kts 312°
2026-05-06 08:57 17.23511 139.56847 37031 ft 445 kts 312°
2026-05-06 08:57 17.27609 139.51996 37030 ft 446 kts 312°
2026-05-06 08:58 17.31720 139.47133 37029 ft 446 kts 311°
2026-05-06 08:58 17.35855 139.42235 37026 ft 446 kts 311°
2026-05-06 08:59 17.39964 139.37360 37022 ft 447 kts 311°
2026-05-06 08:59 17.44105 139.32445 37027 ft 446 kts 311°
2026-05-06 09:00 17.48211 139.27576 37025 ft 447 kts 311°
2026-05-06 09:00 17.52303 139.22710 37026 ft 445 kts 311°
2026-05-06 09:01 17.56414 139.17821 37024 ft 447 kts 311°
2026-05-06 09:01 17.60537 139.12915 37023 ft 446 kts 311°
2026-05-06 09:02 17.64654 139.08008 37022 ft 447 kts 311°
2026-05-06 09:02 17.68743 139.03139 37026 ft 447 kts 311°
2026-05-06 09:03 17.72870 138.98213 37033 ft 447 kts 311°
2026-05-06 09:03 17.76957 138.93335 37040 ft 446 kts 311°
2026-05-06 09:04 17.81090 138.88397 37041 ft 445 kts 311°
2026-05-06 09:04 17.85191 138.83495 37042 ft 446 kts 311°
2026-05-06 09:05 17.89273 138.78610 37041 ft 445 kts 311°
2026-05-06 09:05 17.93398 138.73673 37041 ft 446 kts 311°
2026-05-06 09:06 17.97466 138.68796 37041 ft 445 kts 311°
2026-05-06 09:06 18.01548 138.63899 37041 ft 446 kts 311°
2026-05-06 09:07 18.05644 138.58983 37041 ft 443 kts 311°
2026-05-06 09:07 18.09699 138.54115 37039 ft 443 kts 310°
2026-05-06 09:08 18.13785 138.49205 37047 ft 445 kts 311°
2026-05-06 09:08 18.17837 138.44333 37045 ft 445 kts 310°
2026-05-06 09:09 18.21911 138.39430 37039 ft 443 kts 310°
2026-05-06 09:09 18.25954 138.34558 37038 ft 443 kts 310°
2026-05-06 09:10 18.30000 138.29675 37047 ft 442 kts 310°
2026-05-06 09:10 18.34041 138.24802 37045 ft 442 kts 310°
2026-05-06 09:11 18.38096 138.19908 37041 ft 442 kts 310°
2026-05-06 09:11 18.42118 138.15051 37039 ft 442 kts 310°
2026-05-06 09:12 18.46167 138.10152 37041 ft 441 kts 310°
2026-05-06 09:12 18.50186 138.05286 37042 ft 441 kts 310°
2026-05-06 09:13 18.54186 138.00435 37042 ft 441 kts 310°
2026-05-06 09:13 18.58204 137.95569 37040 ft 440 kts 310°
2026-05-06 09:14 18.62243 137.90671 37039 ft 439 kts 310°
2026-05-06 09:14 18.66221 137.85843 37038 ft 440 kts 310°
2026-05-06 09:15 18.70247 137.80949 37037 ft 440 kts 310°
2026-05-06 09:15 18.74234 137.76096 37038 ft 439 kts 310°
2026-05-06 09:16 18.78260 137.71201 37039 ft 441 kts 310°
2026-05-06 09:16 18.82255 137.66334 37039 ft 439 kts 310°
2026-05-06 09:17 18.86272 137.61438 37038 ft 439 kts 310°
2026-05-06 09:17 18.90259 137.56573 37038 ft 441 kts 310°
2026-05-06 09:18 18.94298 137.51649 37038 ft 444 kts 310°
2026-05-06 09:18 18.98347 137.46704 37036 ft 444 kts 309°
2026-05-06 09:19 19.02367 137.41783 37036 ft 444 kts 309°
2026-05-06 09:19 19.06407 137.36839 37035 ft 443 kts 309°
2026-05-06 09:20 19.10440 137.31897 37051 ft 444 kts 309°
2026-05-06 09:20 19.14448 137.26982 37061 ft 443 kts 309°
2026-05-06 09:21 19.18467 137.22055 37061 ft 443 kts 309°
2026-05-06 09:21 19.22500 137.17104 37062 ft 444 kts 309°
2026-05-06 09:22 19.26517 137.12174 37063 ft 443 kts 309°
2026-05-06 09:22 19.30547 137.07216 37054 ft 443 kts 309°
2026-05-06 09:23 19.34565 137.02266 37057 ft 441 kts 309°
2026-05-06 09:23 19.38560 136.97345 37061 ft 441 kts 309°
2026-05-06 09:24 19.42550 136.92427 37054 ft 441 kts 308°
2026-05-06 09:24 19.46542 136.87499 37054 ft 441 kts 308°
2026-05-06 09:25 19.50552 136.82547 37056 ft 442 kts 308°
2026-05-06 09:25 19.54548 136.77612 37058 ft 441 kts 308°
2026-05-06 09:26 19.58519 136.72697 37059 ft 440 kts 308°
2026-05-06 09:26 19.62505 136.67763 37056 ft 441 kts 308°
2026-05-06 09:27 19.66512 136.62802 37059 ft 442 kts 308°
2026-05-06 09:27 19.70504 136.57848 37057 ft 441 kts 308°
2026-05-06 09:28 19.74485 136.52910 37058 ft 442 kts 308°
2026-05-06 09:28 19.78483 136.47943 37056 ft 441 kts 308°
2026-05-06 09:29 19.82442 136.43022 37057 ft 440 kts 308°
2026-05-06 09:29 19.86442 136.38045 37057 ft 441 kts 308°
2026-05-06 09:30 19.90409 136.33109 37067 ft 440 kts 308°
2026-05-06 09:30 19.94389 136.28140 37075 ft 442 kts 308°
2026-05-06 09:31 19.98361 136.23192 37074 ft 442 kts 308°
2026-05-06 09:31 20.02350 136.18210 37076 ft 442 kts 308°
2026-05-06 09:32 20.06334 136.13232 37075 ft 442 kts 308°
2026-05-06 09:32 20.10309 136.08258 37074 ft 442 kts 308°
2026-05-06 09:33 20.14294 136.03271 37075 ft 442 kts 308°
2026-05-06 09:33 20.18275 135.98283 37074 ft 443 kts 308°
2026-05-06 09:34 20.22258 135.93292 37074 ft 443 kts 308°
2026-05-06 09:34 20.26267 135.88263 37075 ft 443 kts 308°
2026-05-06 09:35 20.30239 135.83276 37073 ft 442 kts 308°
2026-05-06 09:35 20.34206 135.78285 37075 ft 443 kts 308°
2026-05-06 09:36 20.38193 135.73273 37074 ft 443 kts 307°
2026-05-06 09:36 20.42162 135.68275 37073 ft 441 kts 308°
2026-05-06 09:37 20.46117 135.63287 37073 ft 441 kts 308°
2026-05-06 09:37 20.50071 135.58299 37071 ft 441 kts 307°
2026-05-06 09:38 20.54035 135.53296 37073 ft 442 kts 307°
2026-05-06 09:38 20.58001 135.48283 37072 ft 441 kts 308°
2026-05-06 09:39 20.61959 135.43280 37075 ft 441 kts 307°
2026-05-06 09:39 20.65926 135.38257 37076 ft 442 kts 307°
2026-05-06 09:40 20.69878 135.33247 37085 ft 441 kts 307°
2026-05-06 09:40 20.75806 135.25728 37095 ft 442 kts 307°
2026-05-06 09:41 20.79744 135.20729 37093 ft 442 kts 307°
2026-05-06 09:41 20.83706 135.15697 37090 ft 442 kts 307°
2026-05-06 09:42 20.87651 135.10675 37092 ft 441 kts 307°
2026-05-06 09:42 20.91596 135.05655 37091 ft 441 kts 307°
2026-05-06 09:43 20.95529 135.00641 37080 ft 441 kts 307°
2026-05-06 09:43 20.99465 134.95592 37071 ft 439 kts 304°
2026-05-06 09:44 21.00956 134.92810 37100 ft 432 kts 291°
2026-05-06 09:44 21.02005 134.89790 37069 ft 433 kts 287°
2026-05-06 09:44 21.03994 134.83717 37089 ft 434 kts 289°
2026-05-06 09:45 21.06167 134.77704 37084 ft 435 kts 289°
2026-05-06 09:45 21.08378 134.71654 37086 ft 434 kts 289°
2026-05-06 09:46 21.10550 134.65662 37082 ft 435 kts 289°
2026-05-06 09:46 21.12746 134.59584 37082 ft 436 kts 289°
2026-05-06 09:47 21.14923 134.53552 37082 ft 435 kts 289°
2026-05-06 09:47 21.17120 134.47478 37077 ft 436 kts 289°
2026-05-06 09:48 21.19302 134.41429 37077 ft 436 kts 289°
2026-05-06 09:48 21.21475 134.35381 37077 ft 436 kts 289°
2026-05-06 09:49 21.23653 134.29318 37094 ft 435 kts 289°
2026-05-06 09:49 21.25828 134.23285 37094 ft 436 kts 289°
2026-05-06 09:50 21.27997 134.17232 37096 ft 436 kts 289°
2026-05-06 09:50 21.30184 134.11124 37094 ft 436 kts 288°
2026-05-06 09:51 21.32345 134.05083 37091 ft 437 kts 289°
2026-05-06 09:51 21.34535 133.98952 37090 ft 436 kts 288°
2026-05-06 09:52 21.36690 133.92914 37090 ft 436 kts 288°
2026-05-06 09:52 21.38852 133.86839 37089 ft 436 kts 289°
2026-05-06 09:53 21.41013 133.80762 37089 ft 436 kts 288°
2026-05-06 09:53 21.43178 133.74689 37087 ft 436 kts 288°
2026-05-06 09:54 21.45344 133.68581 37084 ft 435 kts 288°
2026-05-06 09:54 21.47491 133.62517 37083 ft 435 kts 288°
2026-05-06 09:55 21.49637 133.56448 37082 ft 436 kts 288°
2026-05-06 09:55 21.51787 133.50378 37078 ft 436 kts 288°
2026-05-06 09:56 21.53940 133.44273 37075 ft 436 kts 288°
2026-05-06 09:56 21.56099 133.38164 37073 ft 437 kts 288°
2026-05-06 09:57 21.58247 133.32068 37087 ft 437 kts 288°
2026-05-06 09:57 21.60385 133.25977 37091 ft 436 kts 288°
2026-05-06 09:58 21.62526 133.19876 37089 ft 437 kts 288°
2026-05-06 09:58 21.64675 133.13754 37089 ft 438 kts 288°
2026-05-06 09:59 21.66818 133.07631 37087 ft 437 kts 288°
2026-05-06 09:59 21.68947 133.01546 37085 ft 436 kts 288°
2026-05-06 10:00 21.71083 132.95441 37083 ft 436 kts 287°
2026-05-06 10:00 21.73212 132.89336 37082 ft 437 kts 288°
2026-05-06 10:01 21.75343 132.83214 37078 ft 437 kts 287°
2026-05-06 10:01 21.77471 132.77103 37071 ft 436 kts 288°
2026-05-06 10:02 21.79589 132.70999 37066 ft 438 kts 287°
2026-05-06 10:02 21.81711 132.64888 37064 ft 437 kts 288°
2026-05-06 10:03 21.83828 132.58778 37062 ft 436 kts 288°
2026-05-06 10:03 21.85957 132.52628 37061 ft 438 kts 288°
2026-05-06 10:04 21.88070 132.46507 37062 ft 438 kts 287°
2026-05-06 10:04 21.90194 132.40358 37062 ft 438 kts 287°
2026-05-06 10:05 21.92302 132.34235 37061 ft 438 kts 287°
2026-05-06 10:05 21.94417 132.28095 37078 ft 438 kts 287°
2026-05-06 10:06 21.96535 132.21933 37080 ft 437 kts 287°
2026-05-06 10:06 21.98641 132.15802 37075 ft 438 kts 287°
2026-05-06 10:07 22.00743 132.09654 37078 ft 438 kts 287°
2026-05-06 10:07 22.02861 132.03473 37075 ft 437 kts 287°
2026-05-06 10:08 22.04954 131.97357 37074 ft 439 kts 287°
2026-05-06 10:08 22.07059 131.91171 37069 ft 438 kts 287°
2026-05-06 10:09 22.09165 131.85004 37069 ft 439 kts 287°
2026-05-06 10:09 22.11262 131.78844 37061 ft 439 kts 287°
2026-05-06 10:10 22.13365 131.72659 37059 ft 439 kts 287°
2026-05-06 10:10 22.15466 131.66466 37058 ft 440 kts 287°
2026-05-06 10:11 22.17564 131.60275 37055 ft 439 kts 287°
2026-05-06 10:11 22.19656 131.54097 37056 ft 439 kts 287°
2026-05-06 10:12 22.21747 131.47899 37055 ft 440 kts 287°
2026-05-06 10:12 22.23842 131.41698 37054 ft 440 kts 287°
2026-05-06 10:13 22.25926 131.35518 37050 ft 440 kts 287°
2026-05-06 10:13 22.28019 131.29288 37072 ft 439 kts 286°
2026-05-06 10:14 22.30095 131.23114 37072 ft 440 kts 286°
2026-05-06 10:14 22.32187 131.16881 37070 ft 441 kts 286°
2026-05-06 10:15 22.34275 131.10654 37068 ft 442 kts 286°
2026-05-06 10:15 22.36352 131.04451 37069 ft 441 kts 286°
2026-05-06 10:16 22.38399 130.98216 37068 ft 439 kts 285°
2026-05-06 10:16 22.40398 130.91980 37067 ft 440 kts 286°
2026-05-06 10:17 22.42467 130.85790 37065 ft 439 kts 286°
2026-05-06 10:17 22.44549 130.79546 37065 ft 440 kts 286°
2026-05-06 10:18 22.46610 130.73360 37062 ft 440 kts 286°
2026-05-06 10:18 22.48691 130.67099 37059 ft 441 kts 286°
2026-05-06 10:19 22.50758 130.60869 37061 ft 442 kts 286°
2026-05-06 10:19 22.52823 130.54643 37056 ft 440 kts 286°
2026-05-06 10:20 22.54878 130.48431 37052 ft 440 kts 286°
2026-05-06 10:20 22.56933 130.42204 37050 ft 439 kts 286°
2026-05-06 10:21 22.58981 130.35997 37050 ft 439 kts 286°
2026-05-06 10:21 22.61028 130.29770 37067 ft 440 kts 286°
2026-05-06 10:22 22.63078 130.23541 37069 ft 441 kts 286°
2026-05-06 10:22 22.65139 130.17278 37067 ft 441 kts 286°
2026-05-06 10:23 22.67189 130.11040 37068 ft 441 kts 286°
2026-05-06 10:23 22.69240 130.04770 37065 ft 441 kts 286°
2026-05-06 10:24 22.71291 129.98496 37063 ft 443 kts 286°
2026-05-06 10:24 22.73340 129.92230 37059 ft 442 kts 286°
2026-05-06 10:25 22.75383 129.85953 37059 ft 442 kts 286°
2026-05-06 10:25 22.77425 129.79677 37058 ft 442 kts 286°
2026-05-06 10:26 22.79456 129.73434 37058 ft 441 kts 286°
2026-05-06 10:26 22.81499 129.67142 37054 ft 441 kts 286°
2026-05-06 10:27 22.83526 129.60893 37048 ft 439 kts 286°
2026-05-06 10:27 22.85548 129.54640 37043 ft 439 kts 286°
2026-05-06 10:28 22.87561 129.48413 37037 ft 439 kts 286°
2026-05-06 10:28 22.89570 129.42178 37039 ft 439 kts 286°
2026-05-06 10:29 22.91582 129.35934 37032 ft 438 kts 286°
2026-05-06 10:29 22.93580 129.29732 37054 ft 436 kts 286°
2026-05-06 10:30 22.95565 129.23549 37055 ft 434 kts 286°
2026-05-06 10:30 22.97545 129.17368 37058 ft 434 kts 286°
2026-05-06 10:31 22.99530 129.11175 37052 ft 434 kts 285°
2026-05-06 10:31 23.01828 129.05119 37054 ft 436 kts 292°
2026-05-06 10:32 23.04661 128.99297 37049 ft 435 kts 294°
2026-05-06 10:32 23.07474 128.93500 37050 ft 434 kts 293°
2026-05-06 10:33 23.10258 128.87674 37046 ft 434 kts 294°
2026-05-06 10:33 23.13037 128.81856 37041 ft 435 kts 294°
2026-05-06 10:34 23.15812 128.76053 37040 ft 434 kts 294°
2026-05-06 10:34 23.18589 128.70226 37037 ft 433 kts 294°
2026-05-06 10:35 23.21339 128.64455 37037 ft 432 kts 294°
2026-05-06 10:35 23.24107 128.58647 37038 ft 431 kts 294°
2026-05-06 10:36 23.26854 128.52861 37035 ft 431 kts 293°
2026-05-06 10:36 23.29615 128.47054 37032 ft 432 kts 294°
2026-05-06 10:37 23.32342 128.41298 37031 ft 428 kts 293°
2026-05-06 10:37 23.35058 128.35555 37029 ft 428 kts 293°
2026-05-06 10:38 23.37795 128.29779 37054 ft 429 kts 293°
2026-05-06 10:38 23.40529 128.23985 37057 ft 428 kts 293°
2026-05-06 10:39 23.43243 128.18237 37057 ft 427 kts 293°
2026-05-06 10:39 23.45950 128.12497 37059 ft 426 kts 293°
2026-05-06 10:40 23.48651 128.06758 37060 ft 426 kts 293°
2026-05-06 10:40 23.51347 128.01025 37060 ft 425 kts 293°
2026-05-06 10:41 23.54044 127.95291 37063 ft 425 kts 293°
2026-05-06 10:41 23.56733 127.89550 37065 ft 425 kts 294°
2026-05-06 10:42 23.59409 127.83836 37057 ft 425 kts 294°
2026-05-06 10:42 23.62093 127.78107 37059 ft 425 kts 294°
2026-05-06 10:43 23.64782 127.72348 37058 ft 423 kts 294°
2026-05-06 10:44 23.68787 127.63778 37056 ft 424 kts 294°
2026-05-06 10:44 23.71459 127.58048 37055 ft 422 kts 294°
2026-05-06 10:45 23.74107 127.52344 37058 ft 423 kts 294°
2026-05-06 10:45 23.76768 127.46639 37055 ft 422 kts 294°
2026-05-06 10:46 23.79418 127.40928 37054 ft 422 kts 294°
2026-05-06 10:46 23.82064 127.35218 37055 ft 423 kts 294°
2026-05-06 10:47 23.84726 127.29472 37076 ft 421 kts 294°
2026-05-06 10:47 23.87380 127.23746 37081 ft 421 kts 294°
2026-05-06 10:48 23.90000 127.18079 36637 ft 415 kts 294°
2026-05-06 10:48 23.91290 127.15281 35930 ft 412 kts 294°
2026-05-06 10:48 23.92576 127.12488 35140 ft 409 kts 294°
2026-05-06 10:48 23.93822 127.09785 35100 ft 392 kts 294°
2026-05-06 10:49 23.95053 127.07125 35067 ft 388 kts 294°
2026-05-06 10:49 23.97524 127.01753 34373 ft 403 kts 294°
2026-05-06 10:49 23.98784 126.99002 33304 ft 409 kts 295°
2026-05-06 10:50 24.00039 126.96278 33116 ft 396 kts 295°
2026-05-06 10:50 24.02540 126.90846 33073 ft 410 kts 295°
2026-05-06 10:50 24.03837 126.88015 33073 ft 421 kts 295°
2026-05-06 10:51 24.05152 126.85149 33065 ft 426 kts 295°
2026-05-06 10:51 24.07837 126.79306 33057 ft 433 kts 295°
2026-05-06 10:52 24.10533 126.73406 33058 ft 434 kts 295°
2026-05-06 10:52 24.13220 126.67503 33060 ft 432 kts 295°
2026-05-06 10:53 24.15964 126.61654 33060 ft 433 kts 296°
2026-05-06 10:53 24.18721 126.55839 33055 ft 432 kts 296°
2026-05-06 10:54 24.21479 126.50005 33056 ft 429 kts 296°
2026-05-06 10:54 24.24243 126.44165 33052 ft 433 kts 296°
2026-05-06 10:55 24.26991 126.38336 33055 ft 432 kts 296°
2026-05-06 10:55 24.29738 126.32511 33067 ft 431 kts 296°
2026-05-06 10:56 24.32464 126.26713 33077 ft 429 kts 296°
2026-05-06 10:56 24.35200 126.20900 33070 ft 431 kts 296°
2026-05-06 10:57 24.37940 126.15064 33072 ft 430 kts 297°
2026-05-06 10:57 24.40674 126.09236 33069 ft 431 kts 297°
2026-05-06 10:58 24.43399 126.03413 33067 ft 429 kts 297°
2026-05-06 10:58 24.46117 125.97604 33068 ft 430 kts 297°
2026-05-06 10:59 24.48845 125.91759 33062 ft 429 kts 297°
2026-05-06 10:59 24.51556 125.85949 33054 ft 431 kts 297°
2026-05-06 11:00 24.54281 125.80106 33048 ft 429 kts 297°
2026-05-06 11:00 24.56996 125.74273 33044 ft 431 kts 298°
2026-05-06 11:01 24.59701 125.68453 33046 ft 429 kts 298°
2026-05-06 11:01 24.62422 125.62598 33038 ft 431 kts 297°
2026-05-06 11:02 24.65142 125.56734 33043 ft 431 kts 298°
2026-05-06 11:02 24.67826 125.50928 33040 ft 430 kts 298°
2026-05-06 11:03 24.70535 125.45074 33038 ft 429 kts 298°
2026-05-06 11:03 24.73253 125.39198 33036 ft 431 kts 298°
2026-05-06 11:04 24.75961 125.33324 33047 ft 431 kts 298°
2026-05-06 11:04 24.78177 125.27242 33057 ft 435 kts 284°
2026-05-06 11:05 24.78912 125.20626 33056 ft 436 kts 279°
2026-05-06 11:05 24.79645 125.13982 33051 ft 438 kts 281°
2026-05-06 11:06 24.80473 125.07374 33046 ft 439 kts 281°
2026-05-06 11:06 24.81290 125.00777 33049 ft 438 kts 281°
2026-05-06 11:07 24.82120 124.94083 33052 ft 437 kts 281°
2026-05-06 11:07 24.82934 124.87443 33052 ft 441 kts 281°
2026-05-06 11:08 24.83736 124.80818 33048 ft 442 kts 281°
2026-05-06 11:08 24.84546 124.74123 33045 ft 440 kts 281°
2026-05-06 11:09 24.85351 124.67441 33048 ft 442 kts 281°
2026-05-06 11:09 24.86165 124.60755 33043 ft 442 kts 281°
2026-05-06 11:10 24.86973 124.54059 33043 ft 443 kts 281°
2026-05-06 11:10 24.87772 124.47381 33040 ft 442 kts 281°
2026-05-06 11:11 24.88572 124.40656 33046 ft 442 kts 281°
2026-05-06 11:11 24.89371 124.33978 33052 ft 445 kts 280°
2026-05-06 11:12 24.90166 124.27251 33064 ft 439 kts 280°
2026-05-06 11:12 24.90549 124.23977 33061 ft 424 kts 280°
2026-05-06 11:12 24.90922 124.20820 33054 ft 407 kts 280°
2026-05-06 11:12 24.91281 124.17763 32762 ft 396 kts 281°
2026-05-06 11:13 24.91622 124.14864 31787 ft 404 kts 281°
2026-05-06 11:13 24.91991 124.11730 30337 ft 419 kts 281°
2026-05-06 11:13 24.92362 124.08532 29145 ft 426 kts 281°
2026-05-06 11:13 24.92733 124.05330 28106 ft 429 kts 281°
2026-05-06 11:14 24.93121 124.02045 27170 ft 429 kts 281°
2026-05-06 11:14 24.93471 123.98882 27056 ft 411 kts 280°
2026-05-06 11:14 24.93798 123.95745 27047 ft 414 kts 280°
2026-05-06 11:14 24.94137 123.92545 27047 ft 426 kts 280°
2026-05-06 11:15 24.94483 123.89304 27087 ft 436 kts 280°
2026-05-06 11:15 24.94845 123.85923 27048 ft 444 kts 280°
2026-05-06 11:15 24.95198 123.82576 27041 ft 441 kts 280°
2026-05-06 11:15 24.95547 123.79227 26906 ft 433 kts 280°
2026-05-06 11:16 24.95893 123.75942 25788 ft 439 kts 280°
2026-05-06 11:16 24.96244 123.72629 24566 ft 444 kts 280°
2026-05-06 11:16 24.96594 123.69312 24082 ft 430 kts 280°
2026-05-06 11:16 24.96927 123.66099 24041 ft 421 kts 280°
2026-05-06 11:17 24.97266 123.62860 24045 ft 432 kts 280°
2026-05-06 11:17 24.97617 123.59530 24043 ft 445 kts 280°
2026-05-06 11:17 24.97969 123.56162 23680 ft 440 kts 279°
2026-05-06 11:17 24.98318 123.52802 22452 ft 446 kts 279°
2026-05-06 11:18 24.98671 123.49417 21308 ft 448 kts 279°
2026-05-06 11:18 24.99020 123.46063 21063 ft 429 kts 279°
2026-05-06 11:18 24.99348 123.42870 21039 ft 423 kts 279°
2026-05-06 11:18 24.99688 123.39595 21040 ft 429 kts 279°
2026-05-06 11:19 25.00019 123.36353 21035 ft 424 kts 279°
2026-05-06 11:19 25.00350 123.33104 21044 ft 429 kts 279°
2026-05-06 11:19 25.00684 123.29847 21043 ft 426 kts 279°
2026-05-06 11:19 25.01013 123.26628 21041 ft 427 kts 279°
2026-05-06 11:20 25.01346 123.23360 21042 ft 429 kts 278°
2026-05-06 11:20 25.01680 123.20089 21042 ft 427 kts 278°
2026-05-06 11:20 25.01963 123.17208 21044 ft 429 kts 278°
2026-05-06 11:20 25.02209 123.14676 21042 ft 428 kts 278°
2026-05-06 11:21 25.02442 123.12315 21043 ft 430 kts 278°
2026-05-06 11:21 25.02839 123.08334 21041 ft 427 kts 278°
2026-05-06 11:21 25.03130 123.05434 21042 ft 429 kts 278°
2026-05-06 11:21 25.03431 123.02438 21043 ft 429 kts 278°
2026-05-06 11:22 25.03773 122.98997 21042 ft 428 kts 278°
2026-05-06 11:22 25.04102 122.95698 21043 ft 429 kts 278°
2026-05-06 11:22 25.04430 122.92426 21040 ft 429 kts 278°
2026-05-06 11:22 25.04761 122.89117 21045 ft 434 kts 278°
2026-05-06 11:23 25.05088 122.85822 21042 ft 433 kts 278°
2026-05-06 11:23 25.05415 122.82530 21044 ft 437 kts 278°
2026-05-06 11:23 25.05744 122.79209 21041 ft 433 kts 278°
2026-05-06 11:23 25.06073 122.75884 21043 ft 437 kts 278°
2026-05-06 11:24 25.06404 122.72552 21040 ft 435 kts 278°
2026-05-06 11:24 25.06734 122.69198 21042 ft 437 kts 278°
2026-05-06 11:24 25.07058 122.65889 21040 ft 435 kts 278°
2026-05-06 11:24 25.07386 122.62537 21042 ft 436 kts 278°
2026-05-06 11:25 25.07709 122.59227 21040 ft 436 kts 278°
2026-05-06 11:25 25.08032 122.55898 21041 ft 437 kts 278°
2026-05-06 11:25 25.08302 122.53111 21038 ft 437 kts 278°
2026-05-06 11:26 25.08871 122.47253 21040 ft 437 kts 278°
2026-05-06 11:26 25.09301 122.42828 21040 ft 439 kts 278°
2026-05-06 11:26 25.09591 122.39824 21040 ft 438 kts 278°
2026-05-06 11:26 25.09830 122.37334 21038 ft 436 kts 278°
2026-05-06 11:27 25.10034 122.35195 21040 ft 438 kts 278°
2026-05-06 11:27 25.10297 122.32414 21046 ft 438 kts 277°
2026-05-06 11:27 25.11624 122.26680 21040 ft 434 kts 297°
2026-05-06 11:27 25.13155 122.23782 21051 ft 434 kts 302°
2026-05-06 11:28 25.14781 122.20991 21054 ft 435 kts 303°
2026-05-06 11:28 25.16365 122.18221 21051 ft 433 kts 302°
2026-05-06 11:28 25.17940 122.15359 21013 ft 427 kts 301°
2026-05-06 11:28 25.19420 122.12607 20901 ft 407 kts 301°
2026-05-06 11:29 25.20821 122.09980 20720 ft 387 kts 301°
2026-05-06 11:29 25.22131 122.07524 20362 ft 361 kts 301°
2026-05-06 11:29 25.23370 122.05203 20010 ft 339 kts 301°
2026-05-06 11:29 25.24477 122.03132 19399 ft 331 kts 301°
2026-05-06 11:30 25.25647 122.00948 18595 ft 328 kts 301°
2026-05-06 11:30 25.26593 121.99178 17960 ft 325 kts 301°
2026-05-06 11:30 25.27840 121.96845 17122 ft 321 kts 301°
2026-05-06 11:30 25.28957 121.94755 16380 ft 318 kts 301°
2026-05-06 11:31 25.30077 121.92660 15657 ft 314 kts 301°
2026-05-06 11:31 25.31172 121.90610 14902 ft 311 kts 300°
2026-05-06 11:31 25.32254 121.88579 14201 ft 306 kts 300°
2026-05-06 11:31 25.33324 121.86567 13475 ft 302 kts 300°
2026-05-06 11:32 25.34358 121.84626 12948 ft 293 kts 300°
2026-05-06 11:32 25.35379 121.82705 12699 ft 285 kts 300°
2026-05-06 11:32 25.36379 121.80830 12331 ft 283 kts 300°
2026-05-06 11:32 25.37373 121.78964 11938 ft 281 kts 300°
2026-05-06 11:33 25.38368 121.77093 11534 ft 280 kts 300°
2026-05-06 11:33 25.39345 121.75250 11137 ft 279 kts 300°
2026-05-06 11:33 25.40326 121.73407 10780 ft 276 kts 300°
2026-05-06 11:33 25.41301 121.71585 10370 ft 275 kts 299°
2026-05-06 11:34 25.42280 121.69746 9941 ft 275 kts 299°
2026-05-06 11:34 25.43254 121.67909 9563 ft 272 kts 299°
2026-05-06 11:34 25.44211 121.66104 9175 ft 271 kts 299°
2026-05-06 11:34 25.45148 121.64327 8992 ft 261 kts 298°
2026-05-06 11:35 25.46050 121.62623 8963 ft 254 kts 298°
2026-05-06 11:35 25.46934 121.60948 8799 ft 250 kts 298°
2026-05-06 11:35 25.47753 121.59270 8505 ft 245 kts 287°
2026-05-06 11:35 25.47765 121.57436 8106 ft 242 kts 251°
2026-05-06 11:36 25.46932 121.55806 7744 ft 241 kts 236°
2026-05-06 11:36 25.45937 121.54330 7407 ft 240 kts 233°
2026-05-06 11:36 25.44905 121.52885 7119 ft 237 kts 232°
2026-05-06 11:36 25.43856 121.51467 6642 ft 242 kts 231°
2026-05-06 11:37 25.42770 121.50033 6367 ft 237 kts 231°
2026-05-06 11:37 25.41700 121.48637 6043 ft 236 kts 231°
2026-05-06 11:37 25.40638 121.47256 5684 ft 236 kts 230°
2026-05-06 11:37 25.39580 121.45885 5327 ft 236 kts 230°
2026-05-06 11:38 25.38529 121.44534 5027 ft 234 kts 230°
2026-05-06 11:38 25.37496 121.43208 4978 ft 222 kts 230°
2026-05-06 11:38 25.36475 121.41903 4986 ft 229 kts 229°
2026-05-06 11:38 25.35402 121.40534 4985 ft 237 kts 229°
2026-05-06 11:39 25.34313 121.39145 4977 ft 233 kts 229°
2026-05-06 11:39 25.33244 121.37779 4984 ft 238 kts 229°
2026-05-06 11:39 25.32165 121.36403 4978 ft 235 kts 229°
2026-05-06 11:39 25.31144 121.35100 4978 ft 235 kts 229°
2026-05-06 11:40 25.30055 121.33712 4982 ft 236 kts 229°
2026-05-06 11:40 25.28969 121.32327 4994 ft 246 kts 229°
2026-05-06 11:40 25.28090 121.31207 4992 ft 262 kts 229°
2026-05-06 11:40 25.27007 121.29826 4984 ft 260 kts 229°
2026-05-06 11:41 25.25982 121.28519 4982 ft 265 kts 229°
2026-05-06 11:41 25.24632 121.26798 4981 ft 266 kts 229°
2026-05-06 11:41 25.23425 121.25259 4981 ft 266 kts 229°
2026-05-06 11:41 25.22194 121.23691 4982 ft 267 kts 229°
2026-05-06 11:42 25.20989 121.22157 4981 ft 267 kts 229°
2026-05-06 11:42 25.19768 121.20606 4979 ft 267 kts 229°
2026-05-06 11:42 25.18552 121.19057 4984 ft 267 kts 229°
2026-05-06 11:42 25.17331 121.17505 4982 ft 267 kts 229°
2026-05-06 11:43 25.16106 121.15946 4984 ft 266 kts 229°
2026-05-06 11:43 25.14895 121.14406 4941 ft 261 kts 229°
2026-05-06 11:43 25.13728 121.12926 4719 ft 256 kts 229°
2026-05-06 11:44 25.11433 121.10009 4497 ft 253 kts 229°
2026-05-06 11:44 25.10234 121.08494 4495 ft 271 kts 229°
2026-05-06 11:44 25.08992 121.06923 4484 ft 265 kts 229°
2026-05-06 11:44 25.07799 121.05411 4482 ft 262 kts 229°
2026-05-06 11:45 25.06590 121.03875 4491 ft 264 kts 229°
2026-05-06 11:45 25.05389 121.02349 4487 ft 262 kts 229°
2026-05-06 11:45 25.04183 121.00817 4489 ft 263 kts 229°
2026-05-06 11:45 25.02980 120.99291 4485 ft 262 kts 229°
2026-05-06 11:46 25.01788 120.97781 4481 ft 258 kts 229°
2026-05-06 11:46 25.00651 120.96343 4472 ft 243 kts 229°
2026-05-06 11:46 24.99606 120.95018 4469 ft 228 kts 229°
2026-05-06 11:46 24.98588 120.93727 4428 ft 217 kts 229°
2026-05-06 11:47 24.97590 120.92461 4467 ft 219 kts 229°
2026-05-06 11:47 24.96724 120.91366 4479 ft 220 kts 229°
2026-05-06 11:47 24.95650 120.90008 4483 ft 217 kts 229°
2026-05-06 11:47 24.94632 120.88757 4464 ft 219 kts 220°
2026-05-06 11:48 24.93285 120.88166 4447 ft 218 kts 182°
2026-05-06 11:48 24.91913 120.88580 4168 ft 220 kts 144°
2026-05-06 11:48 24.91091 120.89838 4016 ft 213 kts 104°
2026-05-06 11:48 24.91094 120.91505 4022 ft 214 kts 84°
2026-05-06 11:49 24.91224 120.93214 4006 ft 231 kts 88°
2026-05-06 11:49 24.91268 120.94994 3982 ft 226 kts 90°
2026-05-06 11:49 24.91260 120.96657 3971 ft 222 kts 91°
2026-05-06 11:49 24.91229 120.98119 3977 ft 226 kts 92°
2026-05-06 11:50 24.91187 120.99948 3970 ft 223 kts 88°
2026-05-06 11:50 24.91705 121.01543 4012 ft 226 kts 56°
2026-05-06 11:50 24.92656 121.02957 3993 ft 230 kts 52°
2026-05-06 11:50 24.93646 121.04302 3974 ft 222 kts 50°
2026-05-06 11:51 24.94661 121.05629 3808 ft 232 kts 50°
2026-05-06 11:51 24.95732 121.07016 3509 ft 238 kts 50°
2026-05-06 11:51 24.96833 121.08412 3186 ft 238 kts 49°
2026-05-06 11:51 24.97889 121.09738 2905 ft 223 kts 49°
2026-05-06 11:52 24.98868 121.10972 2596 ft 207 kts 50°
2026-05-06 11:52 24.99777 121.12118 2347 ft 189 kts 50°
2026-05-06 11:52 25.00618 121.13180 2069 ft 175 kts 50°
2026-05-06 11:52 25.01372 121.14130 1829 ft 153 kts 50°
2026-05-06 11:53 25.02041 121.14975 1675 ft 147 kts 50°
2026-05-06 11:53 25.02739 121.15861 1466 ft 151 kts 50°
2026-05-06 11:53 25.03408 121.16708 1257 ft 141 kts 50°
2026-05-06 11:53 25.04028 121.17490 1085 ft 143 kts 50°
2026-05-06 11:54 25.04686 121.18322 897 ft 142 kts 50°
2026-05-06 11:54 25.05338 121.19145 708 ft 142 kts 51°
2026-05-06 11:54 25.05996 121.19970 546 ft 141 kts 51°
2026-05-06 11:54 25.06642 121.20794 359 ft 142 kts 50°
2026-05-06 11:55 25.07284 121.21603 190 ft 136 kts 49°
2026-05-06 11:55 25.07815 121.22282 120 ft 96 kts 50°
2026-05-06 11:55 25.08109 121.22670 120 ft 36 kts 61°
2026-05-06 11:55 25.08154 121.22787 120 ft 10 kts 71°
2026-05-06 11:56 25.08179 121.22871 120 ft 12 kts 77°
2026-05-06 11:56 25.08182 121.22938 120 ft 7 kts 88°
2026-05-06 11:56 25.08187 121.23005 120 ft 10 kts 82°
2026-05-06 11:56 25.08192 121.23039 120 ft 0 kts 73°
2026-05-06 11:58 25.08193 121.23041 120 ft 3 kts 74°
2026-05-06 11:59 25.08194 121.23047 120 ft 0 kts 76°
2026-05-06 12:00 25.08195 121.23050 120 ft 1 kts 77°
2026-05-06 12:00 25.08197 121.23064 120 ft 2 kts 81°
2026-05-06 12:01 25.08197 121.23086 120 ft 3 kts 95°
2026-05-06 12:01 25.08186 121.23115 120 ft 4 kts 125°
2026-05-06 12:01 25.08157 121.23143 120 ft 5 kts 144°
2026-05-06 12:01 25.08131 121.23155 120 ft 0 kts 160°
2026-05-06 12:02 25.08130 121.23156 120 ft 1 kts 161°
2026-05-06 12:02 25.08120 121.23161 120 ft 2 kts 149°
2026-05-06 12:02 25.08114 121.23173 120 ft 4 kts 115°
2026-05-06 12:02 25.08096 121.23227 120 ft 5 kts 108°
2026-05-06 12:03 25.08081 121.23259 120 ft 2 kts 133°
2026-05-06 12:03 25.08077 121.23263 120 ft 0 kts 142°
2026-05-06 12:03 25.08075 121.23264 120 ft 0 kts 140°
2026-05-06 12:03 25.08074 121.23266 120 ft 0 kts 140°